This is the latest recevied weather packets stored in our database for station/object EA5GK-10. If no packets are shown the sender has not sent any weather packets the latest 10 day(s).
| Time | Temp. | Humidity | Pressure | Rain* | Wind** | Luminosity | Snow |
|---|---|---|---|---|---|---|---|
| 1787873091 | 28.33° C | 34% | 1016.3 hPa | - | - | - | - |
| 1787872191 | 28.33° C | 36% | 1015.9 hPa | - | - | - | - |
| 1787871291 | 28.89° C | 35% | 1016.1 hPa | - | - | - | - |
| 1787870391 | 29.44° C | 36% | 1016.1 hPa | - | - | - | - |
| 1787869490 | 30° C | 37% | 1015.8 hPa | - | - | - | - |
| 1787868590 | 30° C | 40% | 1015.5 hPa | - | - | - | - |
| 1787867690 | 30° C | 39% | 1015.3 hPa | - | - | - | - |
| 1787866789 | 30.56° C | 38% | 1015.3 hPa | - | - | - | - |
| 1787865889 | 30° C | 40% | 1014.7 hPa | - | - | - | - |
| 1787864989 | 30.56° C | 39% | 1014.6 hPa | - | - | - | - |
| 1787864089 | 31.11° C | 38% | 1013.9 hPa | - | - | - | - |
| 1787863189 | 30.56° C | 34% | 1013.9 hPa | - | - | - | - |
| 1787862289 | 30.56° C | 40% | 1014 hPa | - | - | - | - |
| 1787861389 | 30.56° C | 41% | 1014.5 hPa | - | - | - | - |
| 1787860488 | 31.11° C | 39% | 1015 hPa | - | - | - | - |
| 1787859588 | 31.11° C | 39% | 1015.4 hPa | - | - | - | - |
| 1787858688 | 31.67° C | 37% | 1015 hPa | - | - | - | - |
| 1787857788 | 32.22° C | 37% | 1014.1 hPa | - | - | - | - |
| 1787856888 | 32.22° C | 37% | 1012.7 hPa | - | - | - | - |
| 1787855988 | 32.78° C | 36% | 1012.5 hPa | - | - | - | - |
| 1787855088 | 32.78° C | 36% | 1012.1 hPa | - | - | - | - |
| 1787854187 | 33.33° C | 35% | 1012.1 hPa | - | - | - | - |
| 1787853287 | 33.89° C | 34% | 1012.2 hPa | - | - | - | - |
| 1787852387 | 33.89° C | 34% | 1012.1 hPa | - | - | - | - |
| 1787851487 | 33.89° C | 33% | 1012 hPa | - | - | - | - |
* Rain since midnight (hover to see other rain measurements)
** Current wind speed in m/s (hover to see current wind gust speed)